This is the latest recevied weather packets stored in our database for station/object LU3HGB-WX. If no packets are shown the sender has not sent any weather packets the latest 10 day(s).
| Time | Temp. | Humidity | Pressure | Rain* | Wind** | Luminosity | Snow |
|---|---|---|---|---|---|---|---|
| 1778157460 | 12.78° C | 24% | 1011 hPa | 0 mm | - | 67 W/m² | - |
| 1778157160 | 12.78° C | 26% | 1011 hPa | 0 mm | - | 69 W/m² | - |
| 1778156860 | 12.78° C | 27% | 1011 hPa | 0 mm | - | 76 W/m² | - |
| 1778156560 | 13.33° C | 24% | 1010 hPa | 0 mm | - | 65 W/m² | - |
| 1778156265 | 13.89° C | 20% | 1011 hPa | 0 mm | - | 42 W/m² | - |
| 1778155961 | 13.89° C | 17% | 1011 hPa | 0 mm | - | 34 W/m² | - |
| 1778155660 | 13.89° C | 17% | 1011 hPa | 0 mm | - | 24 W/m² | - |
| 1778155360 | 13.89° C | 16% | 1011 hPa | 0 mm | - | 27 W/m² | - |
| 1778155059 | 13.89° C | 17% | 1011 hPa | 0 mm | - | 21 W/m² | - |
| 1778154761 | 14.44° C | 17% | 1011 hPa | 0 mm | - | 13 W/m² | - |
| 1778154460 | 14.44° C | 17% | 1011 hPa | 0 mm | - | 11 W/m² | - |
| 1778154160 | 14.44° C | 16% | 1011 hPa | 0 mm | - | 16 W/m² | - |
| 1778153860 | 14.44° C | 16% | 1011 hPa | 0 mm | - | 23 W/m² | - |
| 1778153560 | 13.89° C | 17% | 1011 hPa | 0 mm | - | 23 W/m² | - |
| 1778153261 | 13.89° C | 19% | 1010 hPa | 0 mm | - | 13 W/m² | - |
| 1778152960 | 14.44° C | 18% | 1010 hPa | 0 mm | - | 7 W/m² | - |
| 1778152659 | 14.44° C | 20% | 1010 hPa | 0 mm | - | 6 W/m² | - |
| 1778152361 | 14.44° C | 23% | 1009 hPa | 0 mm | - | 3 W/m² | - |
| 1778152059 | 14.44° C | 20% | 1009 hPa | 0 mm | - | 2 W/m² | - |
| 1778151759 | 13.89° C | 21% | 1009 hPa | 0 mm | - | 2 W/m² | - |
| 1778151459 | 13.89° C | 21% | 1009 hPa | 0 mm | - | 2 W/m² | - |
| 1778151159 | 13.89° C | 20% | 1009 hPa | 0 mm | - | 1 W/m² | - |
| 1778150860 | 13.89° C | 21% | 1009 hPa | 0 mm | - | 0 W/m² | - |
| 1778150559 | 13.89° C | 23% | 1008 hPa | 0 mm | - | 0 W/m² | - |
| 1778150259 | 13.89° C | 24% | 1008 hPa | 0 mm | - | 0 W/m² | - |
* Rain latest hour (hover to see other rain measurements)
** Current wind speed in m/s (hover to see current wind gust speed)